Regional Weather Roundup
Issued by NWS

Home | Current Version | Previous Version | Graphics & Text | Print | Product List | Glossary On
Versions: 1 2 3 4 5 6 7 8 9 10 11 12 13 14 15 16 17 18 19 20 21 22 23 24 25 26 27 28 29 30 31 32 33 34 35 36 37 38 39 40 41 42 43 44 45 46 47 48 49 50
000
ASUS43 KFSD 011610
RWRSD

WEATHER ROUNDUP FOR SOUTH DAKOTA
NATIONAL WEATHER SERVICE SIOUX FALLS SD
1000 AM CST WED MAR 01 2017

NOTE: "FAIR" INDICATES FEW OR NO CLOUDS BELOW 12,000 FEET WITH NO
SIGNIFICANT WEATHER AND/OR OBSTRUCTIONS TO VISIBILITY.


SDZ001>005-009-010-012>017-011700-
NORTHWEST AND NORTH CENTRAL SOUTH DAKOTA

CITY           SKY/WX    TMP DP  RH WIND       PRES   REMARKS
BUFFALO          N/A     23  16  74 W12       29.99S WCI  12
FAITH            N/A     25  19  78 NW14      30.07R WCI  13
MOBRIDGE       CLOUDY    27  18  69 N15       30.04R WCI  15
$$

SDZ012>016-024>037-041>051-057-063-072>074-011700-
SOUTHWEST AND SOUTH CENTRAL SOUTH DAKOTA

CITY           SKY/WX    TMP DP  RH WIND       PRES   REMARKS
RAPID CTY ARPT SUNNY     32  15  49 NW20      30.09R WCI  20
PIERRE         SUNNY     29  22  75 NW22      30.07R WCI  15
CUSTER         SUNNY     21   4  47 NW15G24   29.99R WCI   8
ELLSWORTH AFB  SUNNY     30  19  63 N7        30.08R WCI  23
PHILIP         MOSUNNY   28  21  75 NW22      30.12R WCI  14
PINE RIDGE     PTSUNNY   27  17  66 W17G25    30.13R WCI  14
SPEARFISH      FAIR      28  12  50 W21       30.05S WCI  15
WINNER         CLOUDY    33  25  72 NW23G30   30.08R WCI  21
$$

SDZ004>011-016>023-039-040-011700-
NORTHEAST SOUTH DAKOTA

CITY           SKY/WX    TMP DP  RH WIND       PRES   REMARKS
ABERDEEN       FLURRIES  23  18  81 N13       30.04R WCI  11
WATERTOWN      FLURRIES  25  19  78 NW15      29.96R WCI  13
BROOKINGS      SUNNY     27  21  78 NW17      29.96R WCI  14
SISSETON         N/A     21  17  84 N23       30.00R WCI   5
$$

SDZ017-020-022-023-036>040-048>070-011700-
SOUTHEAST SOUTH DAKOTA

CITY           SKY/WX    TMP DP  RH WIND       PRES   REMARKS
SIOUX FALLS    MOSUNNY   26  20  77 NW20      29.99R WCI  12
HURON          FLURRIES  24  21  88 NW12      30.04R WCI  13
CHAMBERLAIN    CLOUDY    30  27  87 NW9       30.08R WCI  22
MITCHELL       CLOUDY    27  24  89 W14       30.06R WCI  16
YANKTON          N/A    N/A N/A N/A MISG        N/A
$$

ABBREVIATIONS USED IN REMARKS
   TC - TEMPERATURE IN CELSIUS
  WCI - WIND CHILL INDEX
   HX - HEAT INDEX
  VSB - VISIBILITY




USA.gov is the U.S. government's official web portal to all federal, state and local government web resources and services.